Погода в Джаве

Южная Осетия     42°23′27″N   43°55′16″E
темп.,
°C
ветер,
м/с
пор.,
м/с
влажн.,
%
обл.,
%
осадки,
мм/ч
давл.,
гПа
погр.,
м
17 апреля, сб
сб1700:00−2св337771 0.0 102621
03:00−2св3373100 0.0 102621
06:000ссв328599 0.1 102436
09:00+3в0199100 0.3 102151
12:00+4ссз0199100 0.1 1021135
15:00+5зюз028995 0.5 1021218
18:00+4св119548 0.3 102118
21:00+3ссз1196100 1.3 102227
18 апреля, вс
вс1800:00+2св1295100 0.4 102118
03:00+2св2293100 0.4 102118
06:00+2св1199100 5.7 1021150
09:00+4вюв119557 7.3 1020177
12:00+8юз458195 0.7 1018654
15:00+6зюз2589100 2.5 1018505
18:00+4зюз129693 1.8 1019107
21:00+3с2293100 3.8 102168
19 апреля, пн
пн1900:00+2ссв3393100 0.0 102160
03:00+2ссв3389100 0.0 102127
06:00+2ссв328851 0.0 102128
09:00+5юз1185100 0.1 1020394
12:00+7юз338866 0.7 1019486
15:00+8юз3478100 1.6 1018812
18:00+8юз238289 0.3 101854
21:00+5в118666 0.4 101913
20 апреля, вт
вт2000:00+4в2280100 0.0 101916
03:00+5св337798 0.0 101722
06:00+6св3374100 0.0 101625
09:00+12юв2357100 0.0 1013396
12:00+14ююз3558100 0.4 10131032
15:00+13ююз3461100 0.8 1012652
18:00+8з4898100 6.1 1014735
21:00+6ююв1294100 10.5 101653
21 апреля, ср
ср2100:00+6св1296100 1.3 101698
03:00+5ссз0194100 2.6 101613
06:00+5ююв009543 1.9 101611
09:00+8ю228562 3.1 1015483
12:00+11ю44799 1.3 1014693
15:00+11ююз447719 3.4 1013698
18:00+8ююз339387 2.3 1015293
21:00+6ю3499100 6.4 1016210